AEHF-6 (USA 298)

Last updated on Wed Sep 17 2025 00:02:50 GMT+0000 (Coordinated Universal Time)

1 45465U 20022B 25259.54434347 -.00000318 00000+0 00000+0 0 9998 2 45465 3.1624 298.6849 0043030 7.7589 23.0013 1.00269254 20273
UTC large
Height (km)
Speed (km/s)
/
Latitude / Longitude
Inclination (degrees)
Orbital Period (minutes)
Azimuth
Elevation
Range (km)
Doppler Factor

Next 0 passes for location: London (51.5072 / 0.1276)

Sorry there are no passes over London.